{"data":{"norad_id":65518,"epoch":"2026-05-24T21:16:52.432608Z","epoch_age_seconds":81882,"freshness":"FRESH","line1":"1 65518U 25198AC  26144.88671797  .00021869  00000+0  65613-3 0  9999","line2":"2 65518  53.1599 276.5326 0001192  86.6005 273.5134 15.34417392 40297","mean_motion":15.34417392,"eccentricity":0.0001192,"inclination_deg":53.1599,"raan_deg":276.5326,"arg_perigee_deg":86.6005,"mean_anomaly_deg":273.5134,"bstar":0.00065613,"rev_number":4029,"period_min":93.846694354987,"perigee_km":461.83612601125,"apogee_km":463.46697000109,"semimajor_km":6840.7885480062,"source":"CELESTRAK","updated_at":"2026-05-25T13:38:20.845342Z"}}